THORAD AGENA D DEB

Satellite information

Favourite Embed

Satellite Type and Status

DEBRISIN ORBIT

Key statistics

Satellite THORAD AGENA D DEB at a glance.

Uptime

20339

Days in orbit

Revolutions

≈ 14.3

Per day

Orbit

SSO

Sun Synchronous Orbit

Inclination

100.0

Latest

Satellite identification and parameters

Extended collection of information and parameters for THORAD AGENA D DEB.

Object identification

Identified? True

Debris? True

Object name: THORAD AGENA D DEB

International designator: 1970-025FH

Object number (NORAD): 4911

Object ID (CCSDS): 4911

Country: UNITED STATES OF AMERICA (US)

Current information (Y/N): Y

RCS size: SMALL

Orbital parameters

Period: 100.609 minutes

Inclination: 99.9827 deg

SMA: 7165.567 km

Apoapsis: 830.576 km

Periapsis: 744.287 km

RAAN: 194.206 deg

Eccentricy: 0.00602107

Argument of periapsis: 123.858 deg

Mean anomaly: 236.8348 deg

Mean motion: 14.31287733 rev/day

Mean motion (dot): 0.00004368 rev/day2

B* drag term: 0.0016377367 1/REarth

Two-line elements (TLE)

Creation date: Dec. 12, 2025, 10:14 a.m.

Reference frame: TEME

Reference center: EARTH

Epoch: Dec. 12, 2025, 2:09 a.m. UTC

TLE line 0: 0 THORAD AGENA D DEB

TLE line 1: 1 04911U 70025FH 25346.09021362 .00004368 00000-0 16377-2 0 9999

TLE line 2: 2 04911 99.9827 194.2060 0060211 123.8580 236.8348 14.31287733844829

Live tracking on map

Real-time ground track for satellite THORAD AGENA D DEB.

In-orbit conjunctions

A list of the most updated potential collisions computed for object THORAD AGENA D DEB.

Target Orbit TCA Probability of collision Miss distance Type
FENGYUN 1C DEB SSO 2025-08-07 15:43:36 0.0002284853 129.0 (m) DEBRIS
DELTA 1 DEB SSO 2024-11-14 17:51:28 0.000344517 547.0 (m) DEBRIS
SL-16 R/B LEO 2024-06-30 17:02:09 0.0001692295 86.0 (m) ROCKET BODY

Associated space launch

Meteorological research and development satellite

THORAD AGENA D DEB was lifted into orbit during the mission ‘Thorad SLV-2G Agena D | Nimbus 4’, on board a Thorad SLV-2G Agena D space rocket.

The launch took place on April 8, 1970, 8:17 a.m. from Space Launch Complex 2E.

For more information about the launch, click the button.

Launch to space Thorad SLV-2G Agena D | Nimbus 4
Thorad SLV-2G Agena D | Nimbus 4

Agency: N/A

Status: Launch Successful

Launch date: April 8, 1970, 8:17 a.m. UTC

Rocket: Thorad SLV-2G Agena D

Launch pad: Space Launch Complex 2E

Location: Vandenberg SFB, CA, USA

...

Latest news about this satellite

There are no fresh news available about this satellite. Check back as we update our databases every day.


Newsletter sign-up

Weekly statistics, charts and insights to help you stay on top of the space industry.